Regional Weather Roundup
Issued by NWS

Home | Current Version | Previous Version | Graphics & Text | Print | Product List | Glossary On
Versions: 1 2 3 4 5 6 7 8 9 10 11 12 13 14 15 16 17 18 19 20 21 22 23 24 25 26 27 28 29 30 31 32 33 34 35 36 37 38 39 40 41 42 43 44 45 46 47 48 49 50
000
ASUS43 KIND 252109
RWRIN

WEATHER ROUNDUP FOR INDIANA
NATIONAL WEATHER SERVICE INDIANAPOLIS IN
500 PM EDT SUN SEP 25 2016

NOTE: "FAIR" INDICATES FEW OR NO CLOUDS BELOW 12,000 FEET WITH NO
SIGNIFICANT WEATHER AND/OR OBSTRUCTIONS TO VISIBILITY.

* - STATION DOES NOT REPORT WEATHER SUCH AS PRECIPITATION OR FOG.

+ - STATION NOT QUALITY CONTROLLED BY THE NATIONAL WEATHER SERVICE.
    USE DATA WITH CAUTION...ESPECIALLY DEWPOINT AND RELATIVE
    HUMIDITY OBSERVATIONS.

INZ001>003-010>013-019-020-252200-
NORTHWEST INDIANA

CITY           SKY/WX    TMP DP  RH WIND       PRES   REMARKS
GARY /AIRPORT/ PTSUNNY   86  66  51 SE7       29.93F
KNOX *+        SUNNY     86  34  15 SE8       29.97F
LA PORTE +     MOSUNNY   87  64  47 SE8       29.97F
MICHIGAN CITY+ PTSUNNY   81  66  61 MISG      29.96F
MONTICELLO +   PTSUNNY   84  59  42 S6        29.97F
RENSSELAER +   PTSUNNY   86  61  42 S8        29.95F
VALPARAISO     MOSUNNY   84  64  50 S9        29.95F

$$

LMZ046-743>745-252200-
SOUTHERN LAKE MICHIGAN

STATION/POSITION TIME  TEMP    WIND        PRES    WAVE
                       AIR SEA DIR/SP/G            HT
                 (UTC) (F)     (DEG/KT/KT) (MB)    (FT)
BURNS HARBOR     2101   85     170/  8/ 14 1013.9F
MICHIGAN CITY    2000   82     110/  8/  9   N/A
5NW MICH CITY    2100   77 71  140/  6/  8   N/A     1

$$

INZ004-005-014>016-021>024-252200-
NORTH CENTRAL INDIANA

CITY           SKY/WX    TMP DP  RH WIND       PRES   REMARKS
ELKHART        SUNNY    N/A N/A N/A E7        30.01F
GOSHEN         SUNNY     82  62  50 SE12      30.01F
LOGANSPORT +   MOSUNNY   86  63  45 S7        29.99F
PERU/GRISSOM   MOSUNNY   85  66  52 SE9       29.99F
ROCHESTER +    MOSUNNY   86  66  51 SE7       30.00F
SOUTH BEND     SUNNY     81  65  58 S13       29.98F
WARSAW +       SUNNY     81  55  41 SE6       30.01F

$$

INZ006>009-017-018-025>027-252200-
NORTHEAST INDIANA

CITY           SKY/WX    TMP DP  RH WIND       PRES   REMARKS
ANGOLA *+      SUNNY     79  61  53 SE9       30.04F
AUBURN +       SUNNY     79  59  50 E6        30.05F
FORT WAYNE     PTSUNNY   82  63  52 E8        30.03F
HUNTINGTON +   MOSUNNY  N/A N/A N/A E6        30.01F
KENDALLVILLE + SUNNY     79  61  53 S8        30.05F

$$

INZ028-029-035-036-043>045-051>053-252200-
WEST CENTRAL INDIANA

CITY           SKY/WX    TMP DP  RH WIND       PRES   REMARKS
CRAWFORDSVL +  PTSUNNY   84  66  54 S8        29.99F
GREENCASTLE +  SUNNY     82  72  69 S8        30.02F
LAFAYETTE      MOSUNNY   87  66  49 S7        29.96F
TERRE HAUTE    SUNNY     87  67  51 S9        29.99F

$$

INZ030>032-037>040-046>048-054>057-064-065-252200-
CENTRAL INDIANA

CITY           SKY/WX    TMP DP  RH WIND       PRES   REMARKS
COLUMBUS       SUNNY     84  66  54 SW5       30.03F
GREENWOOD *+   MOSUNNY  N/A N/A N/A S5        30.03F
INDIANAPOLIS   NOT AVBL
-EAGLE CREEK   MOSUNNY   85  65  51 S7        30.01F
MARION +       MOSUNNY   83  62  48 S7        30.02F
MT COMFORT *+  SUNNY     86  63  45 SW6       30.03F
SHELBYVILLE    MOSUNNY   87  63  44 CALM      30.01F
ZIONSVILLE +   SUNNY     84  66  53 S6        30.03F

$$

INZ033-034-041-042-049-050-058-059-252200-
EAST CENTRAL INDIANA

CITY           SKY/WX    TMP DP  RH WIND       PRES   REMARKS
MUNCIE         SUNNY     86  61  42 S3        30.02F

$$

INZ060-061-067>069-081>083-085>088-252200-
SOUTHWEST INDIANA

CITY           SKY/WX    TMP DP  RH WIND       PRES   REMARKS
EVANSVILLE     MOSUNNY   91  65  41 VRB3      30.01F
HUNTINGBURG *+   N/A     90  64  43 S3        30.01F
WASHINGTON +   SUNNY    N/A N/A N/A MISG      30.00F

$$

INZ062-063-066-070>080-084-089>092-252200-
SOUTH CENTRAL AND SOUTHEAST INDIANA

CITY           SKY/WX    TMP DP  RH WIND       PRES   REMARKS
BEDFORD +      SUNNY    N/A N/A N/A CALM      30.02F
BLOOMINGTON    SUNNY     87  64  46 SW5       30.03F
MADISON *+     SUNNY     88  59  37 CALM      30.06F
NORTH VERNON + SUNNY     88  70  55 SE5       30.05F
SEYMOUR +      MOSUNNY   90  63  40 SE5       30.02F

$$




USA.gov is the U.S. government's official web portal to all federal, state and local government web resources and services.